Time,TemperatureF,DewpointF,PressureIn,WindDirection,WindDirectionDegrees,WindSpeedMPH,WindSpeedGustMPH,Humidity,HourlyPrecipIn,Conditions,Clouds,dailyrainin,SoftwareType,DateUTC
2013-04-14 00:00:00,54.1,40.5,29.85,SSE,157,0.0,5.0,60,0.00,,SKC,0.00,VWS V14.01,2013-04-14 07:00:00,
2013-04-14 00:10:00,53.8,41.1,29.86,SSE,163,0.0,2.0,62,0.00,,SKC,0.00,VWS V14.01,2013-04-14 07:10:00,
2013-04-14 00:15:00,53.6,40.9,29.86,SSE,153,2.0,4.0,62,0.00,,SKC,0.00,VWS V14.01,2013-04-14 07:15:00,
2013-04-14 00:25:00,53.3,40.6,29.86,South,189,0.0,1.0,62,0.00,,SKC,0.00,VWS V14.01,2013-04-14 07:25:00,
2013-04-14 00:30:00,53.0,40.8,29.86,South,189,0.0,1.0,63,0.00,,SKC,0.00,VWS V14.01,2013-04-14 07:30:00,
2013-04-14 00:35:00,52.8,40.6,29.86,SSE,157,0.0,2.0,63,0.00,,SKC,0.00,VWS V14.01,2013-04-14 07:35:00,
2013-04-14 00:40:00,52.7,40.9,29.86,SSE,157,0.0,1.0,64,0.00,,SKC,0.00,VWS V14.01,2013-04-14 07:40:00,
2013-04-14 00:45:00,52.6,40.4,29.86,South,176,3.0,3.0,63,0.00,,SKC,0.00,VWS V14.01,2013-04-14 07:45:00,
2013-04-14 00:50:00,52.5,40.7,29.86,South,176,0.0,3.0,64,0.00,,SKC,0.00,VWS V14.01,2013-04-14 07:50:00,
2013-04-14 01:00:00,52.3,40.9,29.86,South,176,0.0,2.0,65,0.00,,SKC,0.00,VWS V14.01,2013-04-14 08:00:00,
2013-04-14 01:05:00,52.2,40.8,29.86,South,176,0.0,2.0,65,0.00,,SKC,0.00,VWS V14.01,2013-04-14 08:05:00,
2013-04-14 01:10:00,52.0,41.0,29.85,South,178,0.0,1.0,66,0.00,,SKC,0.00,VWS V14.01,2013-04-14 08:10:00,
2013-04-14 01:20:00,51.7,40.7,29.86,SSE,168,0.0,1.0,66,0.00,,SKC,0.00,VWS V14.01,2013-04-14 08:20:00,
2013-04-14 01:30:00,51.3,40.7,29.86,SSE,168,0.0,2.0,67,0.00,,SKC,0.00,VWS V14.01,2013-04-14 08:30:00,
2013-04-14 01:35:00,51.1,40.5,29.86,SSE,168,0.0,2.0,67,0.00,,SKC,0.00,VWS V14.01,2013-04-14 08:35:00,
2013-04-14 01:40:00,51.0,40.8,29.86,SSE,168,0.0,1.0,68,0.00,,SKC,0.00,VWS V14.01,2013-04-14 08:40:00,
2013-04-14 01:45:00,50.8,40.6,29.87,SSE,168,0.0,0.0,68,0.00,,SKC,0.00,VWS V14.01,2013-04-14 08:45:00,
2013-04-14 01:50:00,50.7,40.5,29.86,SSE,168,0.0,0.0,68,0.00,,SKC,0.00,VWS V14.01,2013-04-14 08:50:00,
2013-04-14 01:55:00,50.6,40.8,29.87,SSE,168,0.0,0.0,69,0.00,,SKC,0.00,VWS V14.01,2013-04-14 08:55:00,
2013-04-14 02:00:00,50.5,40.7,29.86,SSE,168,0.0,1.0,69,0.00,,SKC,0.00,VWS V14.01,2013-04-14 09:00:00,
2013-04-14 02:10:00,50.4,40.6,29.86,SSE,168,0.0,1.0,69,0.00,,SKC,0.00,VWS V14.01,2013-04-14 09:10:00,
2013-04-14 02:15:00,50.3,40.9,29.86,SSE,168,0.0,0.0,70,0.00,,SKC,0.00,VWS V14.01,2013-04-14 09:15:00,
2013-04-14 02:25:00,50.0,40.6,29.86,SSE,168,0.0,1.0,70,0.00,,SKC,0.00,VWS V14.01,2013-04-14 09:25:00,
2013-04-14 02:35:00,49.6,40.2,29.86,South,169,0.0,0.0,70,0.00,,SKC,0.00,VWS V14.01,2013-04-14 09:35:00,
2013-04-14 02:40:00,49.3,39.9,29.86,SSE,168,0.0,0.0,70,0.00,,SKC,0.00,VWS V14.01,2013-04-14 09:40:00,
2013-04-14 02:45:00,49.1,40.1,29.86,SSE,168,0.0,0.0,71,0.00,,SKC,0.00,VWS V14.01,2013-04-14 09:45:00,
2013-04-14 02:50:00,48.9,39.9,29.86,South,169,0.0,0.0,71,0.00,,SKC,0.00,VWS V14.01,2013-04-14 09:50:00,
2013-04-14 03:00:00,48.7,40.1,29.86,SSE,168,0.0,0.0,72,0.00,,SKC,0.00,VWS V14.01,2013-04-14 10:00:00,
2013-04-14 03:05:00,48.5,39.9,29.86,South,169,0.0,0.0,72,0.00,,SKC,0.00,VWS V14.01,2013-04-14 10:05:00,
2013-04-14 03:15:00,48.4,39.4,29.86,South,169,0.0,1.0,71,0.00,,SKC,0.00,VWS V14.01,2013-04-14 10:15:00,
2013-04-14 03:20:00,48.4,39.4,29.86,ESE,111,0.0,2.0,71,0.00,,SKC,0.00,VWS V14.01,2013-04-14 10:20:00,
2013-04-14 03:25:00,48.3,39.3,29.86,ESE,111,0.0,0.0,71,0.00,,SKC,0.00,VWS V14.01,2013-04-14 10:25:00,
2013-04-14 03:30:00,48.2,39.2,29.86,ESE,111,0.0,0.0,71,0.00,,SKC,0.00,VWS V14.01,2013-04-14 10:30:00,
2013-04-14 03:35:00,48.2,39.2,29.86,ESE,110,0.0,0.0,71,0.00,,SKC,0.00,VWS V14.01,2013-04-14 10:35:00,
2013-04-14 03:40:00,48.1,39.2,29.86,ESE,110,0.0,0.0,71,0.00,,SKC,0.00,VWS V14.01,2013-04-14 10:40:00,
2013-04-14 03:45:00,47.9,39.0,29.86,ESE,111,0.0,0.0,71,0.00,,SKC,0.00,VWS V14.01,2013-04-14 10:45:00,
2013-04-14 03:50:00,47.8,38.9,29.86,ESE,111,0.0,0.0,71,0.00,,SKC,0.00,VWS V14.01,2013-04-14 10:50:00,
2013-04-14 04:00:00,47.7,39.1,29.86,SE,141,0.0,2.0,72,0.00,,SKC,0.00,VWS V14.01,2013-04-14 11:00:00,
2013-04-14 04:05:00,47.6,38.7,29.87,SE,141,0.0,0.0,71,0.00,,SKC,0.00,VWS V14.01,2013-04-14 11:05:00,
2013-04-14 04:15:00,47.5,38.9,29.87,SE,141,0.0,0.0,72,0.00,,SKC,0.00,VWS V14.01,2013-04-14 11:15:00,
2013-04-14 04:20:00,47.4,38.5,29.87,SE,141,0.0,1.0,71,0.00,,SKC,0.00,VWS V14.01,2013-04-14 11:20:00,
2013-04-14 04:30:00,46.7,38.9,29.87,SE,141,0.0,0.0,74,0.00,,SKC,0.00,VWS V14.01,2013-04-14 11:30:00,
2013-04-14 04:35:00,46.1,38.3,29.87,SE,141,1.0,2.0,74,0.00,,SKC,0.00,VWS V14.01,2013-04-14 11:35:00,
2013-04-14 04:40:00,45.6,38.2,29.87,SE,141,0.0,1.0,75,0.00,,SKC,0.00,VWS V14.01,2013-04-14 11:40:00,
2013-04-14 04:45:00,45.3,38.2,29.87,SE,141,0.0,0.0,76,0.00,,SKC,0.00,VWS V14.01,2013-04-14 11:45:00,
2013-04-14 04:50:00,45.0,37.9,29.86,SE,141,0.0,2.0,76,0.00,,SKC,0.00,VWS V14.01,2013-04-14 11:50:00,
2013-04-14 04:55:00,44.9,38.1,29.86,SE,141,0.0,0.0,77,0.00,,SKC,0.00,VWS V14.01,2013-04-14 11:55:00,
2013-04-14 05:05:00,44.2,37.5,29.87,SE,141,0.0,0.0,77,0.00,,SKC,0.00,VWS V14.01,2013-04-14 12:05:00,
2013-04-14 05:15:00,43.8,37.4,29.86,SE,141,0.0,0.0,78,0.00,,SKC,0.00,VWS V14.01,2013-04-14 12:15:00,
2013-04-14 05:20:00,43.6,37.2,29.86,SE,141,0.0,1.0,78,0.00,,SKC,0.00,VWS V14.01,2013-04-14 12:20:00,
2013-04-14 05:25:00,43.4,37.0,29.86,SE,141,0.0,1.0,78,0.00,,SKC,0.00,VWS V14.01,2013-04-14 12:25:00,
2013-04-14 05:30:00,43.3,36.9,29.87,SE,141,0.0,0.0,78,0.00,,SKC,0.00,VWS V14.01,2013-04-14 12:30:00,
2013-04-14 05:40:00,43.3,37.2,29.87,SE,141,0.0,1.0,79,0.00,,SKC,0.00,VWS V14.01,2013-04-14 12:40:00,
2013-04-14 05:45:00,43.3,37.6,29.87,SE,141,0.0,0.0,80,0.00,,SKC,0.00,VWS V14.01,2013-04-14 12:45:00,
2013-04-14 05:55:00,43.3,37.6,29.87,SE,141,0.0,0.0,80,0.00,,SKC,0.00,VWS V14.01,2013-04-14 12:55:00,
2013-04-14 06:00:00,43.3,37.6,29.87,SE,141,0.0,0.0,80,0.00,,SKC,0.00,VWS V14.01,2013-04-14 13:00:00,
2013-04-14 06:10:00,43.1,37.4,29.87,SE,141,0.0,1.0,80,0.00,,SKC,0.00,VWS V14.01,2013-04-14 13:10:00,
2013-04-14 06:15:00,42.8,37.1,29.87,SE,141,0.0,1.0,80,0.00,,SKC,0.00,VWS V14.01,2013-04-14 13:15:00,
2013-04-14 06:20:00,42.7,37.3,29.86,SE,141,0.0,0.0,81,0.00,,SKC,0.00,VWS V14.01,2013-04-14 13:20:00,
2013-04-14 06:25:00,42.5,37.1,29.87,SE,141,0.0,0.0,81,0.00,,SKC,0.00,VWS V14.01,2013-04-14 13:25:00,
2013-04-14 06:35:00,42.2,37.1,29.87,SE,141,0.0,0.0,82,0.00,,SKC,0.00,VWS V14.01,2013-04-14 13:35:00,
2013-04-14 06:40:00,42.2,37.1,29.87,SE,141,0.0,1.0,82,0.00,,SKC,0.00,VWS V14.01,2013-04-14 13:40:00,
2013-04-14 06:50:00,42.1,37.0,29.87,SE,141,0.0,1.0,82,0.00,,SKC,0.00,VWS V14.01,2013-04-14 13:50:00,
2013-04-14 06:55:00,42.1,37.0,29.87,SE,141,0.0,1.0,82,0.00,,SKC,0.00,VWS V14.01,2013-04-14 13:55:00,
2013-04-14 07:00:00,42.1,37.0,29.87,SE,141,0.0,0.0,82,0.00,,SKC,0.00,VWS V14.01,2013-04-14 14:00:00,
2013-04-14 07:10:00,42.7,37.6,29.88,SE,141,0.0,0.0,82,0.00,,SKC,0.00,VWS V14.01,2013-04-14 14:10:00,
2013-04-14 07:15:00,43.2,37.5,29.88,SE,141,0.0,0.0,80,0.00,,SKC,0.00,VWS V14.01,2013-04-14 14:15:00,
2013-04-14 07:20:00,43.4,38.0,29.88,SSE,159,1.0,1.0,81,0.00,,SKC,0.00,VWS V14.01,2013-04-14 14:20:00,
2013-04-14 07:30:00,44.3,38.5,29.88,SSE,159,0.0,0.0,80,0.00,,SKC,0.00,VWS V14.01,2013-04-14 14:30:00,
2013-04-14 07:35:00,44.8,38.0,29.88,SSE,159,0.0,0.0,77,0.00,,SKC,0.00,VWS V14.01,2013-04-14 14:35:00,
2013-04-14 07:40:00,45.2,38.1,29.89,SSE,159,0.0,1.0,76,0.00,,SKC,0.00,VWS V14.01,2013-04-14 14:40:00,
2013-04-14 07:50:00,46.5,38.0,29.89,South,175,0.0,5.0,72,0.00,,SKC,0.00,VWS V14.01,2013-04-14 14:50:00,
2013-04-14 07:55:00,47.2,38.3,29.89,South,175,0.0,1.0,71,0.00,,SKC,0.00,VWS V14.01,2013-04-14 14:55:00,
2013-04-14 08:00:00,47.8,38.5,29.89,South,175,0.0,1.0,70,0.00,,SKC,0.00,VWS V14.01,2013-04-14 15:00:00,
2013-04-14 08:05:00,48.2,38.2,29.89,South,188,0.0,4.0,68,0.00,,SKC,0.00,VWS V14.01,2013-04-14 15:05:00,
2013-04-14 08:15:00,48.9,38.1,29.90,WNW,291,0.0,4.0,66,0.00,,SKC,0.00,VWS V14.01,2013-04-14 15:15:00,
2013-04-14 08:20:00,49.1,37.9,29.90,WNW,291,0.0,1.0,65,0.00,,SKC,0.00,VWS V14.01,2013-04-14 15:20:00,
2013-04-14 08:30:00,49.6,37.9,29.89,West,269,2.0,5.0,64,0.00,,SKC,0.00,VWS V14.01,2013-04-14 15:30:00,
2013-04-14 08:35:00,49.8,37.7,29.90,WSW,249,1.0,3.0,63,0.00,,SKC,0.00,VWS V14.01,2013-04-14 15:35:00,
2013-04-14 08:45:00,50.4,37.5,29.90,SW,235,0.0,5.0,61,0.00,,SKC,0.00,VWS V14.01,2013-04-14 15:45:00,
2013-04-14 08:50:00,50.7,37.8,29.90,WNW,287,0.0,5.0,61,0.00,,SKC,0.00,VWS V14.01,2013-04-14 15:50:00,
2013-04-14 08:55:00,51.0,38.0,29.90,WNW,292,0.0,4.0,61,0.00,,SKC,0.00,VWS V14.01,2013-04-14 15:55:00,
2013-04-14 09:00:00,51.4,38.0,29.90,SSW,205,1.0,4.0,60,0.00,,SKC,0.00,VWS V14.01,2013-04-14 16:00:00,
2013-04-14 09:05:00,52.2,37.9,29.90,WNW,292,1.0,4.0,58,0.00,,SKC,0.00,VWS V14.01,2013-04-14 16:05:00,
2013-04-14 09:10:00,52.7,38.3,29.90,WNW,292,0.0,4.0,58,0.00,,SKC,0.00,VWS V14.01,2013-04-14 16:10:00,
2013-04-14 09:20:00,53.5,38.7,29.89,WNW,302,0.0,2.0,57,0.00,,SKC,0.00,VWS V14.01,2013-04-14 16:20:00,
2013-04-14 09:30:00,53.7,37.9,29.89,South,186,0.0,2.0,55,0.00,,SKC,0.00,VWS V14.01,2013-04-14 16:30:00,
2013-04-14 09:35:00,54.0,38.7,29.90,South,171,0.0,5.0,56,0.00,,SKC,0.00,VWS V14.01,2013-04-14 16:35:00,
2013-04-14 09:45:00,55.0,38.7,29.89,SE,138,6.0,6.0,54,0.00,,SKC,0.00,VWS V14.01,2013-04-14 16:45:00,
2013-04-14 09:50:00,56.2,38.8,29.89,SE,134,0.0,6.0,52,0.00,,SKC,0.00,VWS V14.01,2013-04-14 16:50:00,
2013-04-14 10:00:00,58.1,39.6,29.89,West,281,1.0,7.0,50,0.00,,SKC,0.00,VWS V14.01,2013-04-14 17:00:00,
2013-04-14 10:05:00,59.0,40.4,29.89,SW,221,0.0,5.0,50,0.00,,SKC,0.00,VWS V14.01,2013-04-14 17:05:00,
2013-04-14 10:10:00,59.7,39.5,29.90,West,261,3.0,7.0,47,0.00,,SKC,0.00,VWS V14.01,2013-04-14 17:10:00,
2013-04-14 10:20:00,60.8,39.9,29.89,SSE,165,1.0,6.0,46,0.00,,SKC,0.00,VWS V14.01,2013-04-14 17:20:00,
2013-04-14 10:25:00,61.3,39.8,29.90,SSE,165,0.0,6.0,45,0.00,,SKC,0.00,VWS V14.01,2013-04-14 17:25:00,
2013-04-14 10:30:00,61.5,40.0,29.90,WNW,295,3.0,6.0,45,0.00,,SKC,0.00,VWS V14.01,2013-04-14 17:30:00,
2013-04-14 10:35:00,62.1,40.0,29.90,West,273,0.0,4.0,44,0.00,,SKC,0.00,VWS V14.01,2013-04-14 17:35:00,
2013-04-14 10:40:00,62.3,40.1,29.89,WSW,254,2.0,5.0,44,0.00,,SKC,0.00,VWS V14.01,2013-04-14 17:40:00,
2013-04-14 10:45:00,61.9,39.2,29.89,West,279,0.0,7.0,43,0.00,,SKC,0.00,VWS V14.01,2013-04-14 17:45:00,
2013-04-14 10:50:00,62.5,40.3,29.89,West,261,1.0,6.0,44,0.00,,SKC,0.00,VWS V14.01,2013-04-14 17:50:00,
2013-04-14 10:55:00,63.8,40.3,29.89,South,178,2.0,5.0,42,0.00,,SKC,0.00,VWS V14.01,2013-04-14 17:55:00,
2013-04-14 11:00:00,64.1,41.2,29.89,South,180,0.0,5.0,43,0.00,,SKC,0.00,VWS V14.01,2013-04-14 18:00:00,
2013-04-14 11:10:00,65.2,40.9,29.89,South,171,0.0,4.0,41,0.00,,SKC,0.00,VWS V14.01,2013-04-14 18:10:00,
2013-04-14 11:15:00,65.6,40.7,29.89,South,179,0.0,5.0,40,0.00,,SKC,0.00,VWS V14.01,2013-04-14 18:15:00,
2013-04-14 11:20:00,66.1,41.7,29.88,SSE,157,3.0,6.0,41,0.00,,SKC,0.00,VWS V14.01,2013-04-14 18:20:00,
2013-04-14 11:30:00,66.3,41.3,29.88,WSW,247,4.0,9.0,40,0.00,,SKC,0.00,VWS V14.01,2013-04-14 18:30:00,
2013-04-14 11:35:00,66.8,40.4,29.88,WSW,246,1.0,5.0,38,0.00,,SKC,0.00,VWS V14.01,2013-04-14 18:35:00,
2013-04-14 11:40:00,67.5,40.3,29.88,West,260,1.0,6.0,37,0.00,,SKC,0.00,VWS V14.01,2013-04-14 18:40:00,
2013-04-14 11:45:00,68.1,40.2,29.88,WNW,289,4.0,6.0,36,0.00,,SKC,0.00,VWS V14.01,2013-04-14 18:45:00,
2013-04-14 11:55:00,68.9,40.2,29.87,WNW,299,0.0,8.0,35,0.00,,SKC,0.00,VWS V14.01,2013-04-14 18:55:00,
2013-04-14 12:05:00,69.2,40.4,29.88,West,259,0.0,9.0,35,0.00,,SKC,0.00,VWS V14.01,2013-04-14 19:05:00,
2013-04-14 12:10:00,68.6,39.9,29.87,WSW,252,3.0,7.0,35,0.00,,SKC,0.00,VWS V14.01,2013-04-14 19:10:00,
2013-04-14 12:15:00,68.4,39.7,29.87,SSW,207,1.0,9.0,35,0.00,,SKC,0.00,VWS V14.01,2013-04-14 19:15:00,
2013-04-14 12:25:00,69.5,39.9,29.87,WSW,255,1.0,5.0,34,0.00,,SKC,0.00,VWS V14.01,2013-04-14 19:25:00,
2013-04-14 12:35:00,69.8,40.2,29.86,SW,230,0.0,10.0,34,0.00,,SKC,0.00,VWS V14.01,2013-04-14 19:35:00,
2013-04-14 12:40:00,70.1,39.7,29.86,SSW,210,0.0,7.0,33,0.00,,SKC,0.00,VWS V14.01,2013-04-14 19:40:00,
2013-04-14 12:50:00,70.4,40.7,29.86,NW,326,0.0,10.0,34,0.00,,SKC,0.00,VWS V14.01,2013-04-14 19:50:00,
2013-04-14 12:55:00,70.8,40.3,29.85,NW,307,7.0,7.0,33,0.00,,SKC,0.00,VWS V14.01,2013-04-14 19:55:00,
2013-04-14 13:00:00,70.7,39.4,29.85,West,259,2.0,8.0,32,0.00,,SKC,0.00,VWS V14.01,2013-04-14 20:00:00,
2013-04-14 13:10:00,70.7,37.8,29.85,WSW,253,9.0,11.0,30,0.00,,SKC,0.00,VWS V14.01,2013-04-14 20:10:00,
2013-04-14 13:20:00,70.8,37.0,29.85,NW,321,6.0,9.0,29,0.00,,SKC,0.00,VWS V14.01,2013-04-14 20:20:00,
2013-04-14 13:30:00,71.3,40.0,29.84,West,281,1.0,8.0,32,0.00,,SKC,0.00,VWS V14.01,2013-04-14 20:30:00,
2013-04-14 13:35:00,71.7,40.3,29.84,SSE,153,3.0,8.0,32,0.00,,SKC,0.00,VWS V14.01,2013-04-14 20:35:00,
2013-04-14 13:40:00,71.9,40.5,29.84,South,169,3.0,6.0,32,0.00,,SKC,0.00,VWS V14.01,2013-04-14 20:40:00,
2013-04-14 13:45:00,71.9,39.7,29.84,WSW,258,6.0,7.0,31,0.00,,SKC,0.00,VWS V14.01,2013-04-14 20:45:00,
2013-04-14 13:55:00,72.8,41.3,29.84,NW,304,0.0,11.0,32,0.00,,SKC,0.00,VWS V14.01,2013-04-14 20:55:00,
2013-04-14 14:00:00,73.1,41.5,29.84,WNW,287,9.0,10.0,32,0.00,,SKC,0.00,VWS V14.01,2013-04-14 21:00:00,
2013-04-14 14:05:00,72.8,41.3,29.84,SSW,194,5.0,9.0,32,0.00,,SKC,0.00,VWS V14.01,2013-04-14 21:05:00,
2013-04-14 14:10:00,72.8,41.3,29.84,WSW,241,1.0,9.0,32,0.00,,SKC,0.00,VWS V14.01,2013-04-14 21:10:00,
2013-04-14 14:15:00,72.6,41.9,29.84,WNW,300,0.0,10.0,33,0.00,,SKC,0.00,VWS V14.01,2013-04-14 21:15:00,
2013-04-14 14:20:00,72.5,41.8,29.83,WNW,283,4.0,10.0,33,0.00,,SKC,0.00,VWS V14.01,2013-04-14 21:20:00,
2013-04-14 14:25:00,72.6,41.9,29.83,WNW,300,3.0,9.0,33,0.00,,SKC,0.00,VWS V14.01,2013-04-14 21:25:00,
2013-04-14 14:35:00,71.7,41.9,29.83,SE,142,2.0,7.0,34,0.00,,SKC,0.00,VWS V14.01,2013-04-14 21:35:00,
2013-04-14 14:40:00,71.6,42.5,29.83,SSW,209,4.0,11.0,35,0.00,,SKC,0.00,VWS V14.01,2013-04-14 21:40:00,
2013-04-14 14:45:00,72.0,42.9,29.83,SE,144,6.0,7.0,35,0.00,,SKC,0.00,VWS V14.01,2013-04-14 21:45:00,
2013-04-14 14:50:00,72.2,43.8,29.83,SSE,164,0.0,6.0,36,0.00,,SKC,0.00,VWS V14.01,2013-04-14 21:50:00,
2013-04-14 14:55:00,73.1,44.6,29.82,WNW,298,4.0,11.0,36,0.00,,SKC,0.00,VWS V14.01,2013-04-14 21:55:00,
2013-04-14 15:05:00,72.9,44.4,29.82,SSW,202,5.0,9.0,36,0.00,,SKC,0.00,VWS V14.01,2013-04-14 22:05:00,
2013-04-14 15:10:00,72.7,45.0,29.82,SSW,199,5.0,8.0,37,0.00,,SKC,0.00,VWS V14.01,2013-04-14 22:10:00,
2013-04-14 15:15:00,72.5,45.5,29.82,SSE,167,3.0,10.0,38,0.00,,SKC,0.00,VWS V14.01,2013-04-14 22:15:00,
2013-04-14 15:20:00,72.6,44.9,29.82,NW,326,7.0,13.0,37,0.00,,SKC,0.00,VWS V14.01,2013-04-14 22:20:00,
2013-04-14 15:25:00,72.8,45.0,29.81,SSW,206,1.0,13.0,37,0.00,,SKC,0.00,VWS V14.01,2013-04-14 22:25:00,
2013-04-14 15:30:00,73.1,45.3,29.81,SW,221,2.0,9.0,37,0.00,,SKC,0.00,VWS V14.01,2013-04-14 22:30:00,
2013-04-14 15:40:00,72.4,45.4,29.81,SSW,196,2.0,12.0,38,0.00,,SKC,0.00,VWS V14.01,2013-04-14 22:40:00,
2013-04-14 15:45:00,72.2,45.2,29.82,North,355,6.0,10.0,38,0.00,,SKC,0.00,VWS V14.01,2013-04-14 22:45:00,
2013-04-14 15:50:00,72.1,45.1,29.81,West,274,1.0,8.0,38,0.00,,SKC,0.00,VWS V14.01,2013-04-14 22:50:00,
2013-04-14 15:55:00,71.9,45.6,29.82,SSW,203,2.0,9.0,39,0.00,,SKC,0.00,VWS V14.01,2013-04-14 22:55:00,
2013-04-14 16:00:00,71.7,46.1,29.82,West,275,3.0,8.0,40,0.00,,SKC,0.00,VWS V14.01,2013-04-14 23:00:00,
2013-04-14 16:05:00,71.9,45.6,29.81,WSW,238,2.0,7.0,39,0.00,,SKC,0.00,VWS V14.01,2013-04-14 23:05:00,
2013-04-14 16:10:00,71.9,45.6,29.81,South,170,5.0,8.0,39,0.00,,SKC,0.00,VWS V14.01,2013-04-14 23:10:00,
2013-04-14 16:15:00,71.4,45.8,29.81,WSW,258,4.0,8.0,40,0.00,,SKC,0.00,VWS V14.01,2013-04-14 23:15:00,
2013-04-14 16:20:00,71.0,45.5,29.81,NW,325,2.0,7.0,40,0.00,,SKC,0.00,VWS V14.01,2013-04-14 23:20:00,
2013-04-14 16:25:00,70.8,46.0,29.80,WSW,237,2.0,7.0,41,0.00,,SKC,0.00,VWS V14.01,2013-04-14 23:25:00,
2013-04-14 16:30:00,70.6,45.8,29.80,WNW,291,5.0,22.0,41,0.00,,SKC,0.00,VWS V14.01,2013-04-14 23:30:00,
2013-04-14 16:35:00,70.7,46.5,29.80,SW,217,2.0,8.0,42,0.00,,SKC,0.00,VWS V14.01,2013-04-14 23:35:00,
2013-04-14 16:40:00,70.5,46.3,29.80,NNE,22,5.0,11.0,42,0.00,,SKC,0.00,VWS V14.01,2013-04-14 23:40:00,
2013-04-14 16:45:00,70.7,46.5,29.80,WSW,248,1.0,6.0,42,0.00,,SKC,0.00,VWS V14.01,2013-04-14 23:45:00,
2013-04-14 16:50:00,70.9,46.7,29.80,South,190,0.0,10.0,42,0.00,,SKC,0.00,VWS V14.01,2013-04-14 23:50:00,
2013-04-14 16:55:00,70.9,46.7,29.80,SSE,168,2.0,8.0,42,0.00,,SKC,0.00,VWS V14.01,2013-04-14 23:55:00,
2013-04-14 17:00:00,70.3,46.2,29.80,SSE,164,5.0,6.0,42,0.00,,SKC,0.00,VWS V14.01,2013-04-15 00:00:00,
2013-04-14 17:05:00,69.8,46.3,29.80,WSW,250,0.0,7.0,43,0.00,,SKC,0.00,VWS V14.01,2013-04-15 00:05:00,
2013-04-14 17:10:00,69.3,45.9,29.80,South,180,2.0,6.0,43,0.00,,SKC,0.00,VWS V14.01,2013-04-15 00:10:00,
2013-04-14 17:15:00,69.0,46.2,29.80,WNW,292,2.0,10.0,44,0.00,,SKC,0.00,VWS V14.01,2013-04-15 00:15:00,
2013-04-14 17:20:00,69.1,46.3,29.80,WNW,286,6.0,10.0,44,0.00,,SKC,0.00,VWS V14.01,2013-04-15 00:20:00,
2013-04-14 17:25:00,68.8,46.0,29.80,South,186,3.0,6.0,44,0.00,,SKC,0.00,VWS V14.01,2013-04-15 00:25:00,
2013-04-14 17:30:00,68.3,46.2,29.80,SW,229,1.0,7.0,45,0.00,,SKC,0.00,VWS V14.01,2013-04-15 00:30:00,
2013-04-14 17:35:00,68.0,45.9,29.80,South,188,1.0,8.0,45,0.00,,SKC,0.00,VWS V14.01,2013-04-15 00:35:00,
2013-04-14 17:45:00,67.8,46.3,29.80,WSW,254,0.0,10.0,46,0.00,,SKC,0.00,VWS V14.01,2013-04-15 00:45:00,
2013-04-14 17:55:00,67.9,46.4,29.80,WNW,303,0.0,7.0,46,0.00,,SKC,0.00,VWS V14.01,2013-04-15 00:55:00,
2013-04-14 18:00:00,67.8,46.3,29.81,WSW,253,2.0,8.0,46,0.00,,SKC,0.00,VWS V14.01,2013-04-15 01:00:00,
2013-04-14 18:05:00,67.4,45.9,29.81,SW,219,3.0,9.0,46,0.00,,SKC,0.00,VWS V14.01,2013-04-15 01:05:00,
2013-04-14 18:15:00,65.4,45.2,29.81,WNW,286,5.0,11.0,48,0.00,,SKC,0.00,VWS V14.01,2013-04-15 01:15:00,
2013-04-14 18:20:00,64.8,45.7,29.81,West,273,2.0,9.0,50,0.00,,SKC,0.00,VWS V14.01,2013-04-15 01:20:00,
2013-04-14 18:25:00,64.6,45.6,29.81,WSW,245,0.0,7.0,50,0.00,,SKC,0.00,VWS V14.01,2013-04-15 01:25:00,
2013-04-14 18:35:00,63.8,45.3,29.81,West,281,4.0,6.0,51,0.00,,SKC,0.00,VWS V14.01,2013-04-15 01:35:00,
2013-04-14 18:40:00,63.4,45.0,29.82,SSW,209,2.0,6.0,51,0.00,,SKC,0.00,VWS V14.01,2013-04-15 01:40:00,
2013-04-14 18:45:00,62.7,44.3,29.82,SSW,206,6.0,12.0,51,0.00,,SKC,0.00,VWS V14.01,2013-04-15 01:45:00,
2013-04-14 18:50:00,61.8,44.0,29.82,WNW,299,3.0,11.0,52,0.00,,SKC,0.00,VWS V14.01,2013-04-15 01:50:00,
2013-04-14 19:00:00,60.5,44.3,29.82,West,262,1.0,6.0,55,0.00,,SKC,0.00,VWS V14.01,2013-04-15 02:00:00,
2013-04-14 19:10:00,59.8,44.5,29.81,South,169,4.0,7.0,57,0.00,,SKC,0.00,VWS V14.01,2013-04-15 02:10:00,
2013-04-14 19:15:00,59.4,44.6,29.82,SW,230,1.0,6.0,58,0.00,,SKC,0.00,VWS V14.01,2013-04-15 02:15:00,
2013-04-14 19:20:00,59.0,44.3,29.82,South,178,0.0,8.0,58,0.00,,SKC,0.00,VWS V14.01,2013-04-15 02:20:00,
2013-04-14 19:25:00,58.8,44.5,29.82,SSW,194,1.0,5.0,59,0.00,,SKC,0.00,VWS V14.01,2013-04-15 02:25:00,
2013-04-14 19:35:00,57.9,44.5,29.82,South,176,1.0,6.0,61,0.00,,SKC,0.00,VWS V14.01,2013-04-15 02:35:00,
2013-04-14 19:45:00,57.3,44.8,29.83,SSW,209,0.0,6.0,63,0.00,,SKC,0.00,VWS V14.01,2013-04-15 02:45:00,
2013-04-14 19:55:00,56.6,45.0,29.82,NNW,329,1.0,6.0,65,0.00,,SKC,0.00,VWS V14.01,2013-04-15 02:55:00,
2013-04-14 20:00:00,56.3,45.1,29.82,SSW,193,4.0,9.0,66,0.00,,SKC,0.00,VWS V14.01,2013-04-15 03:00:00,
2013-04-14 20:05:00,55.9,45.1,29.83,WSW,257,0.0,7.0,67,0.00,,SKC,0.00,VWS V14.01,2013-04-15 03:05:00,
2013-04-14 20:15:00,55.3,44.9,29.83,West,261,4.0,9.0,68,0.00,,SKC,0.00,VWS V14.01,2013-04-15 03:15:00,
2013-04-14 20:20:00,55.1,45.1,29.82,SW,221,2.0,7.0,69,0.00,,SKC,0.00,VWS V14.01,2013-04-15 03:20:00,
2013-04-14 20:25:00,54.9,44.9,29.83,North,360,2.0,9.0,69,0.00,,SKC,0.00,VWS V14.01,2013-04-15 03:25:00,
2013-04-14 20:30:00,54.6,45.0,29.83,South,188,1.0,14.0,70,0.00,,SKC,0.00,VWS V14.01,2013-04-15 03:30:00,
2013-04-14 20:35:00,54.4,45.2,29.82,SSE,160,4.0,8.0,71,0.00,,SKC,0.00,VWS V14.01,2013-04-15 03:35:00,
2013-04-14 20:40:00,54.1,44.9,29.82,WNW,286,4.0,11.0,71,0.00,,SKC,0.00,VWS V14.01,2013-04-15 03:40:00,
2013-04-14 20:45:00,53.9,45.1,29.83,WSW,239,1.0,10.0,72,0.00,,SKC,0.00,VWS V14.01,2013-04-15 03:45:00,
2013-04-14 20:50:00,53.7,44.9,29.84,SW,233,2.0,7.0,72,0.00,,SKC,0.00,VWS V14.01,2013-04-15 03:50:00,
2013-04-14 20:55:00,53.4,45.0,29.84,South,186,1.0,13.0,73,0.00,,SKC,0.00,VWS V14.01,2013-04-15 03:55:00,
2013-04-14 21:00:00,53.2,45.1,29.84,West,261,0.0,10.0,74,0.00,,SKC,0.00,VWS V14.01,2013-04-15 04:00:00,
2013-04-14 21:05:00,53.1,45.0,29.83,SSW,213,0.0,9.0,74,0.00,,SKC,0.00,VWS V14.01,2013-04-15 04:05:00,
2013-04-14 21:10:00,52.9,44.8,29.84,WNW,303,5.0,9.0,74,0.00,,SKC,0.00,VWS V14.01,2013-04-15 04:10:00,
2013-04-14 21:15:00,52.7,45.0,29.84,WNW,299,2.0,8.0,75,0.00,,SKC,0.00,VWS V14.01,2013-04-15 04:15:00,
2013-04-14 21:20:00,52.6,45.3,29.84,SW,227,0.0,6.0,76,0.00,,SKC,0.00,VWS V14.01,2013-04-15 04:20:00,
2013-04-14 21:25:00,52.4,45.1,29.84,SSW,206,4.0,8.0,76,0.00,,SKC,0.00,VWS V14.01,2013-04-15 04:25:00,
2013-04-14 21:30:00,52.4,45.1,29.84,SW,236,2.0,9.0,76,0.00,,SKC,0.00,VWS V14.01,2013-04-15 04:30:00,
2013-04-14 21:35:00,52.4,45.4,29.83,SW,218,4.0,8.0,77,0.00,,SKC,0.00,VWS V14.01,2013-04-15 04:35:00,
2013-04-14 21:40:00,52.3,45.3,29.83,WSW,248,2.0,8.0,77,0.00,,SKC,0.00,VWS V14.01,2013-04-15 04:40:00,
2013-04-14 21:45:00,52.3,45.3,29.83,SW,236,1.0,7.0,77,0.00,,SKC,0.00,VWS V14.01,2013-04-15 04:45:00,
2013-04-14 21:50:00,52.1,45.5,29.83,West,281,2.0,9.0,78,0.00,,SKC,0.00,VWS V14.01,2013-04-15 04:50:00,
2013-04-14 21:55:00,52.1,45.5,29.83,West,260,8.0,12.0,78,0.00,,SKC,0.00,VWS V14.01,2013-04-15 04:55:00,
2013-04-14 22:00:00,52.0,45.4,29.83,South,179,1.0,12.0,78,0.00,,SKC,0.00,VWS V14.01,2013-04-15 05:00:00,
2013-04-14 22:05:00,52.0,45.7,29.83,WSW,252,5.0,11.0,79,0.00,,SKC,0.00,VWS V14.01,2013-04-15 05:05:00,
2013-04-14 22:10:00,52.1,45.8,29.82,WSW,244,0.0,8.0,79,0.00,,SKC,0.00,VWS V14.01,2013-04-15 05:10:00,
2013-04-14 22:15:00,52.1,45.8,29.82,WSW,248,5.0,7.0,79,0.00,,SKC,0.00,VWS V14.01,2013-04-15 05:15:00,
2013-04-14 22:20:00,52.0,45.7,29.82,SW,224,5.0,6.0,79,0.00,,SKC,0.00,VWS V14.01,2013-04-15 05:20:00,
2013-04-14 22:25:00,52.0,45.7,29.82,SSW,199,5.0,8.0,79,0.00,,SKC,0.00,VWS V14.01,2013-04-15 05:25:00,
2013-04-14 22:30:00,52.0,45.7,29.83,SSE,163,2.0,6.0,79,0.00,,SKC,0.00,VWS V14.01,2013-04-15 05:30:00,
2013-04-14 22:35:00,51.9,45.6,29.83,SW,233,2.0,7.0,79,0.00,,SKC,0.00,VWS V14.01,2013-04-15 05:35:00,
2013-04-14 22:40:00,51.8,45.8,29.83,South,191,4.0,5.0,80,0.00,,SKC,0.00,VWS V14.01,2013-04-15 05:40:00,
2013-04-14 22:45:00,51.7,45.7,29.83,SSW,205,4.0,4.0,80,0.00,,SKC,0.00,VWS V14.01,2013-04-15 05:45:00,
2013-04-14 22:50:00,51.6,45.6,29.83,SSE,167,1.0,5.0,80,0.00,,SKC,0.00,VWS V14.01,2013-04-15 05:50:00,
2013-04-14 22:55:00,51.5,45.9,29.83,SSW,194,0.0,6.0,81,0.00,,SKC,0.00,VWS V14.01,2013-04-15 05:55:00,
2013-04-14 23:00:00,51.5,45.9,29.83,SSW,192,4.0,8.0,81,0.00,,SKC,0.00,VWS V14.01,2013-04-15 06:00:00,
2013-04-14 23:10:00,51.5,45.9,29.82,South,186,4.0,5.0,81,0.00,,SKC,0.00,VWS V14.01,2013-04-15 06:10:00,
2013-04-14 23:15:00,51.6,46.3,29.82,SSW,208,4.0,7.0,82,0.00,,SKC,0.00,VWS V14.01,2013-04-15 06:15:00,
2013-04-14 23:20:00,51.7,46.4,29.82,South,180,0.0,8.0,82,0.00,,SKC,0.00,VWS V14.01,2013-04-15 06:20:00,
2013-04-14 23:25:00,51.9,46.6,29.82,WNW,302,2.0,7.0,82,0.00,,SKC,0.00,VWS V14.01,2013-04-15 06:25:00,
2013-04-14 23:30:00,52.1,46.8,29.82,West,278,1.0,5.0,82,0.00,,SKC,0.00,VWS V14.01,2013-04-15 06:30:00,
2013-04-14 23:35:00,52.3,47.0,29.82,SSW,207,2.0,6.0,82,0.00,,SKC,0.00,VWS V14.01,2013-04-15 06:35:00,
2013-04-14 23:40:00,52.4,46.8,29.82,West,280,0.0,8.0,81,0.00,,SKC,0.00,VWS V14.01,2013-04-15 06:40:00,
2013-04-14 23:50:00,52.6,46.9,29.81,SSW,194,5.0,7.0,81,0.00,,SKC,0.00,VWS V14.01,2013-04-15 06:50:00,
2013-04-14 23:55:00,52.6,46.9,29.82,SW,225,5.0,6.0,81,0.00,,SKC,0.00,VWS V14.01,2013-04-15 06:55:00,